Regional Weather Roundup
Issued by NWS

Home | Current Version | Previous Version | Graphics & Text | Print | Product List | Glossary On
Versions: 1 2 3 4 5 6 7 8 9 10 11 12 13 14 15 16 17 18 19 20 21 22 23 24 25 26 27
000
ASUS45 KSLC 221710
RWRUT

UTAH REGIONAL WEATHER ROUNDUP
NATIONAL WEATHER SERVICE SALT LAKE CITY UT
1100 AM MDT WED OCT 22 2014

UTZ001>011-023>025-221800-

NORTHERN UTAH

CITY           SKY/WX    TMP DP  RH WIND       PRES   REMARKS
BRIGHAM CITY   SUNNY     46  32  57 CALM      30.23R
HILL AFB       SUNNY     49  29  47 E10       30.21S
LOGAN          SUNNY     43  32  65 VRB5      30.23S
OGDEN          SUNNY     50  30  46 CALM      30.21R
PROVO AIRPORT  MOSUNNY   50  30  46 S3        30.23R
SALT LAKE CITY MOSUNNY   52  32  46 SE3       30.21R
VERNAL         MOSUNNY   52  41  66 CALM      30.20R
WENDOVER       SUNNY     50  30  46 CALM      30.22S
HEBER CITY     SUNNY     43  30  61 CALM      30.24R
WEST JORDAN    SUNNY     52  37  58 CALM      30.22R

$$

UTZ012>022-026-027-221800-

SOUTHERN/CENTRAL UTAH

CITY           SKY/WX    TMP DP  RH WIND       PRES   REMARKS
BLANDING       MOSUNNY   58  42  56 S3        30.29R
BRYCE CANYON   SUNNY     54  35  48 N3        30.27S
CEDAR CITY     SUNNY     51  31  46 CALM      30.21R
DELTA          SUNNY     51  30  45 CALM      30.21S
HANKSVILLE       N/A     59  39  47 CALM      30.17S
MILFORD        SUNNY     54  28  36 NE6       30.20R
MOAB/CYNLANDS  SUNNY     62  43  49 CALM      30.14R
PRICE          SUNNY     56  27  32 CALM      30.19R
ST GEORGE      SUNNY     64  37  36 CALM      30.12R

$$

REGIONAL REPORTS     COLORADO/ARIZONA

CITY           SKY/WX    TMP DP  RH WIND       PRES   REMARKS
CRAIG, CO      PTSUNNY   50  41  71 W5        30.22R
GRAND JUNCTION MOSUNNY   59  45  59 SE8       30.16R
RIFLE          MOSUNNY   54  43  66 NE6       30.20S
MONTROSE       MOSUNNY   56  41  57 CALM      30.20S
CORTEZ         SUNNY     62  43  49 CALM      30.21S
PAGE, AZ       MOSUNNY   66  39  37 VRB3      30.14R
GRAND CANYON   SUNNY     60  35  39 W9        30.26R
KINGMAN        SUNNY     74  43  32 VRB3      30.10R
FLAGSTAFF      SUNNY     59  40  49 CALM      30.27S

$$

REGIONAL REPORTS    NEVADA/IDAHO/WYOMING

CITY           SKY/WX    TMP DP  RH WIND       PRES   REMARKS
LAS VEGAS, NV  MOSUNNY   73  26  17 CALM      30.02R
ELY            SUNNY     49  15  25 SE6       30.23S
ELKO           SUNNY     42  21  43 VRB3      30.21S
POCATELLO, ID  MOSUNNY   47  33  58 VRB5      30.21S
BURLEY         SUNNY     49  33  54 E3        30.18S
EVANSTON, WY   MOSUNNY   42  25  50 VRB5      30.24S
ROCK SPRINGS   MOSUNNY   39  29  67 SW7       30.24R WCI  34
KEMMERER       SUNNY     43  27  52 W7        30.24S

$$



USA.gov is the U.S. government's official web portal to all federal, state and local government web resources and services.